Point Mugu NAWC, CA

6:25 PM PST on February 24, 2017 (GMT -0800)
Point Mugu Naval Air Station

Weather History for KNTD - November, 2010

Change the Weather History Date:

Sunday, November 21, 2010

  Actual Average Record
Temperature  
Mean Temperature 52 °F -  
Max Temperature 57 °F 64 °F 88 °F (2015)
Min Temperature 46 °F 45 °F 39 °F (1998)
Degree Days  
Heating Degree Days 12    
Growing Degree Days 2 (Base 50)    
Moisture  
Dew Point 43 °F    
Average Humidity 66    
Maximum Humidity 88    
Minimum Humidity 57    
Precipitation  
Precipitation 0.27 in - - ()
Sea Level Pressure  
Sea Level Pressure 30.02 in    
Wind  
Wind Speed 11 mph (West)    
Max Wind Speed 22 mph    
Max Gust Speed 28 mph    
Visibility 8 miles    
Events      
Averages and records for this station are not official NWS values.
T = Trace of Precipitation, MM = Missing Value Source: NWS Daily Summary

Daily Weather History Graph

Daily Weather History Graph

Search for Another Location

Airport or City:

Trip Planner

Search our weather history database for the weather conditions in past years. The results will help you decide how hot, cold, wet, or windy it might be!

Date:

Astronomy

Nov. 21, 2010 Rise Set
Actual Time 6:34 AM PST 4:49 PM PST
Civil Twilight 6:08 AM PST 5:16 PM PST
Nautical Twilight 5:37 AM PST 5:46 PM PST
Astronomical Twilight 5:07 AM PST 6:16 PM PST
Moon 4:47 PM PST (11/21) 6:38 AM PST (11/21)
Length of Visible Light 11h 08m
Length of Day
10h 14m
Full, 100% of the Moon is Illuminated
Nov 21
Full
Nov 28
Last Quarter
Dec 5
New
Dec 13
First Quarter
Dec 21
Full

Hourly Weather History & Observations

Time (PST) Temp. Dew Point Humidity Pressure Visibility Wind Dir Wind Speed Gust Speed Precip Events Conditions
12:54 AM 53.1 °F 44.1 °F 71% 29.95 in 10.0 mi WSW 4.6 mph - N/A   Overcast
1:54 AM - - N/A% 29.94 in - SSW 5.8 mph - N/A   Mostly Cloudy
2:54 AM - - N/A% 29.91 in - SSW 15.0 mph 24.2 mph N/A   Overcast
3:54 AM - - N/A% 29.88 in 10.0 mi SSW 20.7 mph 27.6 mph N/A   Overcast
4:54 AM - - N/A% 29.92 in - North - - 0.12 in   Overcast
5:54 AM 53.6 °F 50.0 °F 88% 29.93 in 7.0 mi NW 3.5 mph - 0.15 in   Mostly Cloudy
6:54 AM 54.3 °F 50.0 °F 85% 29.95 in 7.0 mi NW 5.8 mph - N/A   Mostly Cloudy
7:54 AM 54.0 °F 44.1 °F 69% 29.98 in 7.0 mi WNW 17.3 mph 24.2 mph N/A   Scattered Clouds
8:54 AM 55.9 °F 43.0 °F 62% 30.01 in 7.0 mi West 15.0 mph 23.0 mph N/A   Scattered Clouds
9:54 AM 57.0 °F 42.1 °F 57% 30.04 in 7.0 mi West 11.5 mph 24.2 mph N/A   Scattered Clouds
10:54 AM 55.9 °F 44.1 °F 64% 30.06 in 7.0 mi West 15.0 mph 21.9 mph N/A   Mostly Cloudy
11:54 AM 57.9 °F 45.0 °F 62% 30.04 in 7.0 mi West 18.4 mph 23.0 mph N/A   Scattered Clouds
12:54 PM 57.9 °F 44.1 °F 60% 30.03 in 7.0 mi West 12.7 mph - N/A   Scattered Clouds
1:54 PM 57.9 °F 45.0 °F 62% 30.02 in 7.0 mi West 17.3 mph 26.5 mph N/A   Scattered Clouds
2:54 PM 57.9 °F 44.1 °F 60% 30.03 in 7.0 mi West 19.6 mph 26.5 mph N/A   Scattered Clouds
3:54 PM 57.0 °F 42.1 °F 57% 30.04 in 7.0 mi West 21.9 mph 27.6 mph N/A   Partly Cloudy
4:54 PM 55.0 °F 41.0 °F 59% 30.05 in 10.0 mi West 17.3 mph 27.6 mph N/A   Scattered Clouds
5:54 PM 54.0 °F 41.0 °F 62% 30.06 in 10.0 mi WNW 16.1 mph 24.2 mph N/A   Clear
6:54 PM 54.0 °F 39.0 °F 57% 30.07 in 10.0 mi WNW 12.7 mph 21.9 mph N/A   Clear
7:54 PM 52.0 °F 41.0 °F 66% 30.09 in 10.0 mi WNW 16.1 mph 23.0 mph N/A   Clear
8:54 PM 52.0 °F 39.9 °F 63% 30.12 in 10.0 mi WNW 10.4 mph 21.9 mph N/A   Clear
9:54 PM 51.1 °F 41.0 °F 68% 30.14 in 10.0 mi WNW 9.2 mph - N/A   Clear
10:54 PM 48.9 °F 39.9 °F 71% 30.14 in 10.0 mi Calm Calm - N/A   Clear
11:54 PM 46.9 °F 39.9 °F 77% 30.15 in 10.0 mi North 4.6 mph - N/A   Clear